Location: Kuppenheim
(48.8299°N, 8.2568°E)
Time: 13:43:02
(UTC+00:00)

Cosmos 1553 Rocket - Pass Details

Date: 20 June 2021
Orbit: 940 x 1009 km, 82.9° (Epoch: 30 July)

Event Time Altitude Azimuth Distance (km) Brightness Sun altitude
Rises 02:01:08 0° 349° (NNW) 3,722 7.7 -10.1°
Reaches altitude 10° 02:03:42 10° 347° (NNW) 2,760 7.0 -9.9°
Maximum altitude 02:09:59 70° 265° (W) 1,036 4.0 -9.3°
Drops below altitude 10° 02:16:07 10° 183° (S) 2,694 5.8 -8.6°
Enters shadow 02:17:53 - 182° (S) 3,360 6.3 -8.5°
